Flag for U.S.A. Weather past 2 weeks in Pontiac, Michigan, U.S.A.

Now
64 °F

Clear.


Feels Like: 64 °F
Forecast: 60 / 84 °F
Wind: 3 mph from South

Location: Oakland County International Airport

Current Time: Jul 6, 2015 at 3:12:04 AM

Latest Report: Jul 6, 2015 at 1:53 AM


Visibility: 10 mi

Pressure: 30.04 "Hg

Humidity: 75%

Dew point: 56 °F

Location of PontiacLocation

Historic Weather in Pontiac — Graph

°F

Pontiac temperature yesterday

Maximum temperature yesterday: 81 °F (at 2:53 PM)
Minimum temperature yesterday: 59 °F (at 5:53 AM)
Average temperature yesterday: 70 °F

Past Weeks' High & Low Weather Summary

 TemperatureHumidityPressure
High82 °F (Jun 21, 5:53 PM)97% (Jun 21, 3:53 AM)30.15 "Hg (Jun 21, 3:53 AM)
Low50 °F (Jul 3, 4:53 AM)32% (Jun 24, 1:53 PM)29.68 "Hg (Jun 22, 11:53 PM)
Average67 °F71%29.93 "Hg
* Reported Jun 21 1:53 AM — Jul 6 1:53 AM, Pontiac, Weather by CustomWeather, © 2015

Note: Actual official high and low records may vary slightly from our data, if they occured in-between our weather recording intervals... More about our weather records

Advertising

Pontiac weather history for previous 24 hours

 ConditionsComfort  
Time TempWeatherWind HumidityBarometerVisibility
1:53 AM
Mon, Jul 6
64 °FClear.3 mph75%30.04 "Hg10 mi
12:53 AM66 °FClear.No wind70%30.06 "Hg10 mi
11:53 PM
Sun, Jul 5
64 °FPassing clouds.3 mph78%30.07 "Hg8 mi
10:53 PM67 °FPassing clouds.No wind71%30.07 "Hg9 mi
9:53 PM72 °FPartly sunny.No wind57%30.07 "Hg10 mi
8:53 PM74 °FPartly sunny.5 mph53%30.06 "Hg10 mi
7:53 PM77 °FPartly sunny.7 mph48%30.06 "Hg10 mi
6:53 PM80 °FPartly sunny.8 mph45%30.07 "Hg10 mi
5:53 PM81 °FPartly sunny.7 mph45%30.07 "Hg10 mi
4:53 PM81 °FPartly sunny.6 mph45%30.07 "Hg10 mi
3:53 PM81 °FScattered clouds.3 mph45%30.08 "Hg10 mi
2:53 PM81 °FScattered clouds.5 mph45%30.09 "Hg10 mi
1:53 PM80 °FScattered clouds.7 mph49%30.10 "Hg10 mi
12:53 PM79 °FPassing clouds.8 mph45%30.10 "Hg10 mi
11:53 AM77 °FPassing clouds.8 mph52%30.11 "Hg10 mi
10:53 AM75 °FPassing clouds.8 mph55%30.11 "Hg9 mi
9:53 AM72 °FHaze.No wind71%30.12 "Hg3 mi
8:53 AM67 °FHaze.No wind81%30.10 "Hg3 mi
7:53 AM63 °FFog.No wind87%30.10 "Hg3 mi
6:53 AM60 °FFog.No wind90%30.09 "Hg2 mi
5:53 AM59 °FFog.No wind90%30.08 "Hg2 mi
4:53 AM60 °FFog.No wind90%30.07 "Hg2 mi
3:53 AM60 °FFog.No wind90%30.06 "Hg2 mi
Weather by CustomWeather, © 2015

See weather overviewHow to use our weather pages